TimeMDT,TemperatureF,Dew PointF,Humidity,Sea Level PressureIn,VisibilityMPH,Wind Direction,Wind SpeedMPH,Gust SpeedMPH,PrecipitationIn,Events,Conditions,WindDirDegrees,DateUTC
12:53 AM,69.1,48.0,47,29.93,10.0,SSW,5.8,-,N/A,,Clear,210,2013-08-29 06:53:00
1:53 AM,66.0,48.0,52,29.94,10.0,SW,4.6,-,N/A,,Clear,220,2013-08-29 07:53:00
2:53 AM,64.0,48.0,56,29.94,10.0,SSW,3.5,-,N/A,,Clear,210,2013-08-29 08:53:00
3:53 AM,61.0,46.9,60,29.96,10.0,Calm,Calm,-,N/A,,Clear,0,2013-08-29 09:53:00
4:53 AM,57.9,45.0,62,29.98,10.0,SE,3.5,-,N/A,,Clear,140,2013-08-29 10:53:00
5:53 AM,57.9,45.0,62,30.00,10.0,South,4.6,-,N/A,,Clear,190,2013-08-29 11:53:00
6:53 AM,59.0,44.1,58,30.03,10.0,South,8.1,-,N/A,,Clear,180,2013-08-29 12:53:00
7:53 AM,66.0,45.0,47,30.05,10.0,SSW,3.5,-,N/A,,Clear,200,2013-08-29 13:53:00
8:53 AM,70.0,46.0,42,30.04,10.0,Calm,Calm,-,N/A,,Clear,0,2013-08-29 14:53:00
9:53 AM,75.0,46.0,36,30.04,10.0,Calm,Calm,-,N/A,,Clear,0,2013-08-29 15:53:00
10:53 AM,79.0,46.9,32,30.05,10.0,West,3.5,-,N/A,,Clear,270,2013-08-29 16:53:00
11:53 AM,84.0,46.9,27,30.03,10.0,Calm,Calm,-,N/A,,Clear,0,2013-08-29 17:53:00
12:53 PM,88.0,45.0,22,30.00,10.0,NNE,6.9,-,N/A,,Clear,20,2013-08-29 18:53:00
1:53 PM,90.0,45.0,21,29.98,10.0,North,5.8,-,N/A,,Clear,350,2013-08-29 19:53:00
2:53 PM,93.0,39.9,16,29.95,10.0,NNE,4.6,-,N/A,,Clear,20,2013-08-29 20:53:00
3:53 PM,93.9,37.0,14,29.93,10.0,Variable,3.5,-,N/A,,Clear,0,2013-08-29 21:53:00
4:53 PM,91.9,39.9,16,29.93,10.0,NNE,5.8,-,N/A,,Clear,30,2013-08-29 22:53:00
5:53 PM,90.0,44.1,20,29.94,10.0,North,8.1,-,N/A,,Clear,350,2013-08-29 23:53:00
6:53 PM,79.0,53.1,40,30.01,10.0,North,18.4,29.9,0.00,,Partly Cloudy,10,2013-08-30 00:53:00
7:53 PM,75.9,52.0,43,30.01,10.0,North,11.5,-,N/A,,Clear,360,2013-08-30 01:53:00
8:53 PM,69.1,53.1,57,30.02,10.0,East,3.5,-,N/A,,Clear,90,2013-08-30 02:53:00
9:53 PM,72.0,51.1,48,30.03,10.0,South,8.1,-,N/A,,Clear,170,2013-08-30 03:53:00
10:53 PM,66.9,50.0,54,30.01,10.0,South,5.8,-,N/A,,Clear,180,2013-08-30 04:53:00
11:53 PM,64.0,48.9,58,30.01,10.0,Calm,Calm,-,N/A,,Clear,0,2013-08-30 05:53:00